Other Public Products
Issued by NWS Charleston, SC

Current Version | Previous Version | Text Only | Print | Product List | Glossary Off
Versions: 1 2 3 4 5 6 7 8 9 10 11 12 13 14 15 16 17 18 19 20 21 22 23 24 25 26 27 28 29 30 31 32 33 34 35 36 37 38 39 40 41 42 43 44 45 46 47 48 49 50

013
FPUS82 KCHS 201627
OPUCHS

TEST...KCHS/KSAV Gateway Observations...TEST
National Weather Service Charleston SC
1100 AM EST MON NOV 20 2017

NOTE: "fair" indicates few or no clouds below 12,000 feet with no
significant weather and/or obstructions to visibility.

SCZ050-WAZ558-NCZ071-TXZ119-213-PAZ071-DCZ001-FLZ074-172-MI076-
NYZ176-178-MAZ016-IL014-TNZ027-NJZ106-GAZ044-MD014-201700-

...Gateway Observations for Charleston International...

CITY           SKY/WX    TMP DP  RH WIND       PRES   REMARKS
Chas Airport   MOSUNNY   55  31  39 NE8       30.27F
Seattle        RAIN      48  47  96 NW13      29.55R FOG
Charlotte      MOSUNNY   50  27  40 CALM      30.28S
Dallas DFW     MOSUNNY   56  31  38 S16       30.17F
Dallas Love    MOSUNNY   57  31  37 S10       30.19F
Philladelphia  MOSUNNY   44  20  38 NW16G22   30.14S
Wash National  SUNNY     46  20  35 W9G21     30.22F
Baltimore      MOSUNNY   43  21  41 W15       30.19S
Miami          PTSUNNY   78  67  68 NE12G22   30.06S
Detroit        PTSUNNY   40  25  55 SW18      30.02F WCI  31
Newark         MOSUNNY   45  22  40 W23       30.05S
Laguardia      PTSUNNY   42  23  46 W14G25    30.04S
J F K          PTSUNNY   42  23  46 W17       30.06S
Boston Logan   MOSUNNY   39  14  36 W21G36    29.89R WCI  29
Ft. Lauderdale PTSUNNY   76  67  73 NE15G25   30.06S
Chicago O`Hare MOSUNNY   43  27  53 SW18G24   29.89F
Chicago Midway MOSUNNY   44  29  55 SW16G22   29.91F
Houston Bush   PTSUNNY   59  36  42 SE9       30.25R
Houston Hobby  PTSUNNY   60  39  45 E9        30.24R
Nashville      PTSUNNY   42  25  50 S7        30.28F
Atlanta        MOSUNNY   51  27  39 SE6       30.24S

$$

GAZ044-118-TXZ119-213-NCZ071-DCZ001-MDZ014-506-PAZ021-071-NJZ106-
NYZ176-178-MAZ106-OHZ011-021-055-MIZ076-KYZ091-ILZ014-INZ047-
MNZ060-ONZ431-201700-

...Gateway Observations for Savannah International...

CITY           SKY/WX    TMP DP  RH WIND       PRES   REMARKS
Savannah Arpt  MOSUNNY   59  34  39 NE7       30.27S
Atlanta        MOSUNNY   51  27  39 SE6       30.24S
Charlotte      MOSUNNY   50  27  40 CALM      30.28S
Dallas DFW     MOSUNNY   56  31  38 S16       30.17F
Houston Bush   PTSUNNY   59  36  42 SE9       30.25R
Wash National  SUNNY     46  20  35 W9G21     30.22F
Wash Dulles    SUNNY     44  22  41 W6        30.21S
Baltimore      MOSUNNY   43  21  41 W15       30.19S
Philadelphia   MOSUNNY   44  20  38 NW16G22   30.14S
Newark         MOSUNNY   45  22  40 W23       30.05S
Laguardia      PTSUNNY   42  23  46 W14G25    30.04S
J F K          PTSUNNY   42  23  46 W17       30.06S
Boston         MOSUNNY   39  14  36 W21G36    29.89R WCI  29
Pittsburg      MOSUNNY   33  22  63 SW15G21   30.15F WCI  23
Akron          MOSUNNY   35  23  61 SW15      30.13F WCI  25
Cleveland      MOSUNNY   38  26  62 S16G23    30.12F WCI  29
Cincinnati     PTSUNNY   37  25  61 S13       30.22S WCI  29
Columbus       SUNNY     37  25  63 S14       30.20F WCI  28
Detroit        PTSUNNY   40  25  55 SW18      30.02F WCI  31
Chicago O`Hare MOSUNNY   43  27  53 SW18G24   29.89F
Minneapolis    CLOUDY    37  29  72 S8        29.58F WCI  31
Indianapolis   PTSUNNY   40  24  53 S15       30.14F WCI  32
Toronto Canada PTSUNNY   36  25  64 SW14      29.95S WCI  27

$$




USA.gov is the U.S. government's official web portal to all federal, state and local government web resources and services.